Location: Stockholm
(59.3330°N, 18.0500°E)
Time: 07:12:03
(UTC+02:00)

RS-15 - Visible Passes

Search period start: 19 April 2024 00:00
Search period end: 29 April 2024 00:00
Orbit: 1895 x 2150 km, 64.8° (Epoch: 18 April)

Date Brightness Start Highest point End Pass type
(mag) Time Alt. Az. Time Alt. Az. Time Alt. Az.
19 Apr 8.3 01:17:33 10° W 01:29:14 69° NNW 01:40:24 10° ENE visible
19 Apr 8.3 03:31:25 10° WNW 03:42:57 75° NNE 03:53:59 10° ESE visible
19 Apr 8.0 22:28:26 10° SSW 22:40:10 72° SE 22:51:24 10° NE visible
20 Apr 8.2 00:41:11 10° WSW 00:52:56 72° NNW 01:04:08 10° ENE visible
20 Apr 8.3 02:55:08 10° WNW 03:06:40 71° NNE 03:17:42 10° E visible
20 Apr 8.0 21:52:42 10° SSW 22:04:16 63° SE 22:15:20 10° NE visible
21 Apr 8.2 00:04:52 10° WSW 00:16:40 77° NNW 00:27:56 10° ENE visible
21 Apr 8.3 02:18:48 10° WNW 02:30:21 68° N 02:41:25 10° E visible
21 Apr 8.1 21:17:08 10° SSW 21:28:26 54° ESE 21:39:15 10° NE visible
21 Apr 8.1 23:28:36 10° WSW 23:40:28 83° NNW 23:51:46 10° ENE visible
22 Apr 8.4 01:42:27 10° W 01:54:01 67° N 02:05:05 10° E visible
22 Apr 8.1 03:55:56 10° WNW 04:07:24 88° NNE 04:18:25 10° SE visible
22 Apr 8.1 22:52:27 10° SW 23:04:19 90° NW 23:15:38 10° ENE visible
23 Apr 8.4 01:06:04 10° W 01:17:41 68° N 01:28:46 10° E visible
23 Apr 8.1 03:19:45 10° WNW 03:31:15 81° NNE 03:42:17 10° ESE visible
23 Apr 8.0 22:16:24 10° SW 22:28:14 82° SE 22:39:31 10° NE visible
24 Apr 8.3 00:29:41 10° W 00:41:21 69° N 00:52:29 10° ENE visible
24 Apr 8.2 02:43:31 10° WNW 02:55:02 75° NNE 03:06:05 10° ESE visible
24 Apr 8.0 21:40:29 10° SW 21:52:14 73° SE 22:03:27 10° NE visible
24 Apr 8.3 23:53:19 10° WSW 00:05:02 72° NNW 00:16:14 10° ENE visible
25 Apr 8.3 02:07:15 10° WNW 02:18:46 71° NNE 02:29:49 10° E visible
25 Apr 8.1 21:04:43 10° SSW 21:16:19 64° SE 21:27:23 10° NE visible
25 Apr 8.2 23:16:59 10° WSW 23:28:46 76° NNW 23:40:01 10° ENE visible
26 Apr 8.3 01:30:55 10° WNW 01:42:28 69° N 01:53:30 10° E visible
26 Apr 8.0 03:44:10 10° NW 03:55:33 83° SW 04:06:29 10° SE visible
26 Apr 8.2 22:40:43 10° WSW 22:52:34 82° NNW 23:03:50 10° ENE visible
27 Apr 8.4 00:54:34 10° W 01:06:08 67° N 01:17:11 10° E visible
27 Apr 8.0 03:08:02 10° WNW 03:19:28 89° NNE 03:30:29 10° SE visible
27 Apr 8.1 22:04:32 10° SW 22:16:24 89° NW 22:27:42 10° ENE visible
28 Apr 8.4 00:18:12 10° W 00:29:47 67° N 00:40:52 10° E visible
28 Apr 8.1 02:31:51 10° WNW 02:43:20 82° NNE 02:54:21 10° ESE visible
28 Apr 8.1 21:28:29 10° SW 21:40:18 83° SE 21:51:35 10° NE visible
